Time,TemperatureF,DewpointF,PressureIn,WindDirection,WindDirectionDegrees,WindSpeedMPH,WindSpeedGustMPH,Humidity,HourlyPrecipIn,Conditions,Clouds,dailyrainin,SoftwareType,DateUTC
2013-04-24 00:00:00,38.7,35.0,30.15,East,82,1.0,1.0,87,0.00,,,0.00,weatherlink.com 1.10,2013-04-24 04:00:00,
2013-04-24 00:15:00,37.9,35.0,30.14,NE,34,0.0,1.0,88,0.00,,,0.00,weatherlink.com 1.10,2013-04-24 04:15:00,
2013-04-24 00:30:00,37.1,34.0,30.14,NE,34,0.0,0.0,89,0.00,,,0.00,weatherlink.com 1.10,2013-04-24 04:30:00,
2013-04-24 00:45:00,37.0,34.0,30.13,NNE,33,0.0,1.0,89,0.00,,,0.00,weatherlink.com 1.10,2013-04-24 04:45:00,
2013-04-24 01:00:00,36.5,34.0,30.13,NE,34,0.0,1.0,90,0.00,,,0.00,weatherlink.com 1.10,2013-04-24 05:00:00,
2013-04-24 01:15:00,35.9,33.0,30.11,NE,34,0.0,1.0,90,0.00,,,0.00,weatherlink.com 1.10,2013-04-24 05:15:00,
2013-04-24 01:30:00,35.4,33.0,30.11,NE,34,0.0,1.0,91,0.00,,,0.00,weatherlink.com 1.10,2013-04-24 05:30:00,
2013-04-24 01:45:00,34.9,33.0,30.10,NE,34,0.0,1.0,92,0.00,,,0.00,weatherlink.com 1.10,2013-04-24 05:45:00,
2013-04-24 02:00:00,35.1,33.0,30.09,NNE,15,0.0,3.0,93,0.00,,,0.00,weatherlink.com 1.10,2013-04-24 06:00:00,
2013-04-24 02:15:00,35.0,33.0,30.09,North,349,0.0,2.0,93,0.00,,,0.00,weatherlink.com 1.10,2013-04-24 06:15:00,
2013-04-24 02:30:00,35.1,33.0,30.09,North,349,1.0,1.0,92,0.00,,,0.00,weatherlink.com 1.10,2013-04-24 06:30:00,
2013-04-24 02:46:00,35.2,33.0,30.08,North,352,0.0,2.0,93,0.00,,,0.00,weatherlink.com 1.10,2013-04-24 06:46:00,
2013-04-24 03:01:00,34.8,33.0,30.08,ENE,67,1.0,1.0,92,0.00,,,0.00,weatherlink.com 1.10,2013-04-24 07:01:00,
2013-04-24 03:16:00,34.8,33.0,30.08,NNW,329,0.0,1.0,94,0.00,,,0.00,weatherlink.com 1.10,2013-04-24 07:16:00,
2013-04-24 03:31:00,34.1,32.0,30.07,NNW,329,0.0,0.0,93,0.00,,,0.00,weatherlink.com 1.10,2013-04-24 07:31:00,
2013-04-24 03:46:00,34.1,32.0,30.07,East,79,0.0,1.0,93,0.00,,,0.00,weatherlink.com 1.10,2013-04-24 07:46:00,
2013-04-24 04:01:00,34.1,33.0,30.06,East,86,0.0,2.0,94,0.00,,,0.00,weatherlink.com 1.10,2013-04-24 08:01:00,
2013-04-24 04:16:00,33.7,32.0,30.06,East,86,0.0,0.0,94,0.00,,,0.00,weatherlink.com 1.10,2013-04-24 08:16:00,
2013-04-24 04:31:00,34.6,34.0,30.05,North,352,1.0,2.0,96,0.00,,,0.00,weatherlink.com 1.10,2013-04-24 08:31:00,
2013-04-24 04:46:00,34.0,33.0,30.05,SE,125,1.0,1.0,94,0.00,,,0.00,weatherlink.com 1.10,2013-04-24 08:46:00,
2013-04-24 05:01:00,33.7,32.0,30.05,SE,125,0.0,1.0,94,0.00,,,0.00,weatherlink.com 1.10,2013-04-24 09:01:00,
2013-04-24 05:16:00,33.5,32.0,30.05,SE,125,0.0,1.0,95,0.00,,,0.00,weatherlink.com 1.10,2013-04-24 09:16:00,
2013-04-24 05:31:00,33.2,32.0,30.05,ESE,119,1.0,1.0,94,0.00,,,0.00,weatherlink.com 1.10,2013-04-24 09:31:00,
2013-04-24 05:46:00,33.0,32.0,30.04,NE,39,0.0,1.0,95,0.00,,,0.00,weatherlink.com 1.10,2013-04-24 09:46:00,
2013-04-24 06:01:00,32.9,32.0,30.04,NE,38,0.0,1.0,95,0.00,,,0.00,weatherlink.com 1.10,2013-04-24 10:01:00,
2013-04-24 06:16:00,33.0,32.0,30.04,NE,38,0.0,1.0,96,0.00,,,0.00,weatherlink.com 1.10,2013-04-24 10:16:00,
2013-04-24 06:31:00,33.7,33.0,30.04,ENE,74,1.0,1.0,96,0.00,,,0.00,weatherlink.com 1.10,2013-04-24 10:31:00,
2013-04-24 06:46:00,35.5,35.0,30.04,ESE,122,0.0,1.0,96,0.00,,,0.00,weatherlink.com 1.10,2013-04-24 10:46:00,
2013-04-24 07:01:00,38.4,37.0,30.04,ESE,122,0.0,1.0,95,0.00,,,0.00,weatherlink.com 1.10,2013-04-24 11:01:00,
2013-04-24 07:16:00,39.9,37.0,30.04,East,100,1.0,3.0,90,0.00,,,0.00,weatherlink.com 1.10,2013-04-24 11:16:00,
2013-04-24 07:31:00,41.9,39.0,30.04,ESE,123,1.0,1.0,88,0.00,,,0.00,weatherlink.com 1.10,2013-04-24 11:31:00,
2013-04-24 07:46:00,43.9,39.0,30.03,SSE,166,0.0,4.0,83,0.00,,,0.00,weatherlink.com 1.10,2013-04-24 11:46:00,
2013-04-24 08:01:00,45.5,40.0,30.03,SSW,209,1.0,6.0,80,0.00,,,0.00,weatherlink.com 1.10,2013-04-24 12:01:00,
2013-04-24 08:16:00,46.4,41.0,30.02,SW,232,4.0,8.0,80,0.00,,,0.00,weatherlink.com 1.10,2013-04-24 12:16:00,
2013-04-24 08:31:00,48.7,42.0,30.01,SW,235,1.0,4.0,77,0.00,,,0.00,weatherlink.com 1.10,2013-04-24 12:31:00,
2013-04-24 08:46:00,49.0,41.0,30.00,SW,222,1.0,5.0,73,0.00,,,0.00,weatherlink.com 1.10,2013-04-24 12:46:00,
2013-04-24 09:02:00,50.4,41.0,29.99,WSW,242,6.0,7.0,70,0.00,,,0.00,weatherlink.com 1.10,2013-04-24 13:02:00,
2013-04-24 09:17:00,51.1,40.0,29.98,WSW,252,2.0,10.0,67,0.00,,,0.00,weatherlink.com 1.10,2013-04-24 13:17:00,
2013-04-24 09:32:00,52.8,40.0,29.97,SSW,203,3.0,10.0,63,0.00,,,0.00,weatherlink.com 1.10,2013-04-24 13:32:00,
2013-04-24 09:47:00,53.4,41.0,29.96,SW,228,4.0,8.0,64,0.00,,,0.00,weatherlink.com 1.10,2013-04-24 13:47:00,
2013-04-24 10:02:00,55.0,42.0,29.96,SW,228,2.0,8.0,62,0.00,,,0.00,weatherlink.com 1.10,2013-04-24 14:02:00,
2013-04-24 10:17:00,55.9,42.0,29.95,West,276,2.0,10.0,59,0.00,,,0.00,weatherlink.com 1.10,2013-04-24 14:17:00,
2013-04-24 10:32:00,57.4,43.0,29.94,SW,216,2.0,8.0,58,0.00,,,0.00,weatherlink.com 1.10,2013-04-24 14:32:00,
2013-04-24 10:47:00,58.7,43.0,29.94,SW,223,7.0,9.0,56,0.00,,,0.00,weatherlink.com 1.10,2013-04-24 14:47:00,
2013-04-24 11:02:00,59.3,42.0,29.93,SSW,196,2.0,10.0,54,0.00,,,0.00,weatherlink.com 1.10,2013-04-24 15:02:00,
2013-04-24 11:17:00,60.4,43.0,29.91,SW,214,5.0,11.0,53,0.00,,,0.00,weatherlink.com 1.10,2013-04-24 15:17:00,
2013-04-24 11:32:00,61.8,42.0,29.90,SW,229,2.0,9.0,49,0.00,,,0.00,weatherlink.com 1.10,2013-04-24 15:32:00,
2013-04-24 11:47:00,62.3,43.0,29.90,West,275,2.0,10.0,49,0.00,,,0.00,weatherlink.com 1.10,2013-04-24 15:47:00,
2013-04-24 12:02:00,63.4,43.0,29.88,SSW,203,3.0,11.0,48,0.00,,,0.00,weatherlink.com 1.10,2013-04-24 16:02:00,
2013-04-24 12:17:00,64.8,45.0,29.87,NW,326,1.0,8.0,49,0.00,,,0.00,weatherlink.com 1.10,2013-04-24 16:17:00,
2013-04-24 12:32:00,65.0,43.0,29.86,SW,230,5.0,10.0,45,0.00,,,0.00,weatherlink.com 1.10,2013-04-24 16:32:00,
2013-04-24 12:47:00,65.5,43.0,29.84,WSW,244,5.0,12.0,44,0.00,,,0.00,weatherlink.com 1.10,2013-04-24 16:47:00,
2013-04-24 13:03:00,66.8,44.0,29.83,SW,229,1.0,7.0,44,0.00,,,0.00,weatherlink.com 1.10,2013-04-24 17:03:00,
2013-04-24 13:18:00,67.0,42.0,29.81,SW,224,5.0,8.0,41,0.00,,,0.00,weatherlink.com 1.10,2013-04-24 17:18:00,
2013-04-24 13:33:00,68.0,43.0,29.79,NW,305,2.0,8.0,41,0.00,,,0.00,weatherlink.com 1.10,2013-04-24 17:33:00,
2013-04-24 13:48:00,68.4,45.0,29.78,WNW,296,4.0,11.0,43,0.00,,,0.00,weatherlink.com 1.10,2013-04-24 17:48:00,
2013-04-24 14:03:00,69.2,43.0,29.77,ESE,106,2.0,9.0,39,0.00,,,0.00,weatherlink.com 1.10,2013-04-24 18:03:00,
2013-04-24 14:18:00,69.5,44.0,29.76,SSE,164,2.0,8.0,40,0.00,,,0.00,weatherlink.com 1.10,2013-04-24 18:18:00,
2013-04-24 14:33:00,70.9,44.0,29.76,WNW,288,4.0,7.0,38,0.00,,,0.00,weatherlink.com 1.10,2013-04-24 18:33:00,
2013-04-24 14:48:00,71.4,44.0,29.75,WSW,249,5.0,7.0,38,0.00,,,0.00,weatherlink.com 1.10,2013-04-24 18:48:00,
2013-04-24 15:03:00,71.5,42.0,29.75,SW,229,2.0,10.0,35,0.00,,,0.00,weatherlink.com 1.10,2013-04-24 19:03:00,
2013-04-24 15:18:00,72.0,44.0,29.74,WSW,237,3.0,9.0,36,0.00,,,0.00,weatherlink.com 1.10,2013-04-24 19:18:00,
2013-04-24 15:33:00,72.8,43.0,29.73,NW,311,5.0,12.0,34,0.00,,,0.00,weatherlink.com 1.10,2013-04-24 19:33:00,
2013-04-24 15:48:00,72.4,42.0,29.71,SW,221,6.0,12.0,34,0.00,,,0.00,weatherlink.com 1.10,2013-04-24 19:48:00,
2013-04-24 16:03:00,72.3,42.0,29.71,SSE,165,5.0,13.0,34,0.00,,,0.00,weatherlink.com 1.10,2013-04-24 20:03:00,
2013-04-24 16:18:00,73.0,44.0,29.71,SW,227,5.0,10.0,35,0.00,,,0.00,weatherlink.com 1.10,2013-04-24 20:18:00,
2013-04-24 16:33:00,73.7,43.0,29.70,West,260,6.0,9.0,33,0.00,,,0.00,weatherlink.com 1.10,2013-04-24 20:33:00,
2013-04-24 16:48:00,73.3,43.0,29.70,SW,233,6.0,12.0,34,0.00,,,0.00,weatherlink.com 1.10,2013-04-24 20:48:00,
2013-04-24 17:03:00,72.9,44.0,29.70,WSW,247,4.0,15.0,35,0.00,,,0.00,weatherlink.com 1.10,2013-04-24 21:03:00,
2013-04-24 17:18:00,72.4,43.0,29.69,WSW,257,3.0,8.0,35,0.00,,,0.00,weatherlink.com 1.10,2013-04-24 21:18:00,
2013-04-24 17:33:00,71.8,44.0,29.70,SW,232,4.0,12.0,37,0.00,,,0.00,weatherlink.com 1.10,2013-04-24 21:33:00,
2013-04-24 17:48:00,70.8,44.0,29.70,WNW,302,5.0,12.0,38,0.00,,,0.00,weatherlink.com 1.10,2013-04-24 21:48:00,
2013-04-24 18:03:00,70.3,43.0,29.70,WNW,283,5.0,10.0,38,0.00,,,0.00,weatherlink.com 1.10,2013-04-24 22:03:00,
2013-04-24 18:18:00,70.1,43.0,29.71,WNW,285,3.0,9.0,38,0.00,,,0.00,weatherlink.com 1.10,2013-04-24 22:18:00,
2013-04-24 18:33:00,69.5,44.0,29.70,SSW,204,1.0,6.0,40,0.00,,,0.00,weatherlink.com 1.10,2013-04-24 22:33:00,
2013-04-24 18:48:00,68.2,44.0,29.69,SW,236,1.0,4.0,42,0.00,,,0.00,weatherlink.com 1.10,2013-04-24 22:48:00,
2013-04-24 19:03:00,67.6,44.0,29.70,WSW,243,0.0,4.0,42,0.00,,,0.00,weatherlink.com 1.10,2013-04-24 23:03:00,
2013-04-24 19:18:00,66.6,44.0,29.69,WNW,295,1.0,3.0,44,0.00,,,0.00,weatherlink.com 1.10,2013-04-24 23:18:00,
2013-04-24 19:33:00,65.5,44.0,29.68,WSW,242,2.0,5.0,46,0.00,,,0.00,weatherlink.com 1.10,2013-04-24 23:33:00,
2013-04-24 19:49:00,65.1,44.0,29.67,WSW,237,0.0,3.0,46,0.00,,,0.00,weatherlink.com 1.10,2013-04-24 23:49:00,
2013-04-24 20:04:00,65.2,45.0,29.65,WSW,249,0.0,2.0,48,0.00,,,0.00,weatherlink.com 1.10,2013-04-25 00:04:00,
2013-04-24 20:19:00,64.3,45.0,29.65,WNW,285,0.0,2.0,50,0.00,,,0.00,weatherlink.com 1.10,2013-04-25 00:19:00,
2013-04-24 20:34:00,63.9,46.0,29.65,WSW,240,0.0,2.0,53,0.00,,,0.00,weatherlink.com 1.10,2013-04-25 00:34:00,
2013-04-24 20:49:00,63.1,47.0,29.65,WSW,240,0.0,1.0,56,0.00,,,0.00,weatherlink.com 1.10,2013-04-25 00:49:00,
2013-04-24 21:04:00,63.4,46.0,29.66,West,274,3.0,4.0,53,0.00,,,0.00,weatherlink.com 1.10,2013-04-25 01:04:00,
2013-04-24 21:19:00,61.8,48.0,29.67,WNW,302,0.0,3.0,60,0.00,,,0.00,weatherlink.com 1.10,2013-04-25 01:19:00,
2013-04-24 21:34:00,61.0,48.0,29.68,NW,319,1.0,2.0,63,0.00,,,0.00,weatherlink.com 1.10,2013-04-25 01:34:00,
2013-04-24 21:49:00,61.1,46.0,29.67,NW,308,0.0,2.0,59,0.00,,,0.00,weatherlink.com 1.10,2013-04-25 01:49:00,
2013-04-24 22:04:00,60.5,47.0,29.65,NW,308,0.0,1.0,62,0.00,,,0.00,weatherlink.com 1.10,2013-04-25 02:04:00,
2013-04-24 22:19:00,60.4,46.0,29.65,NW,304,1.0,1.0,60,0.00,,,0.00,weatherlink.com 1.10,2013-04-25 02:19:00,
2013-04-24 22:34:00,61.1,46.0,29.66,West,281,2.0,3.0,59,0.00,,,0.00,weatherlink.com 1.10,2013-04-25 02:34:00,
2013-04-24 22:49:00,60.9,49.0,29.66,SW,231,3.0,4.0,64,0.00,,,0.00,weatherlink.com 1.10,2013-04-25 02:49:00,
2013-04-24 23:04:00,60.4,50.0,29.65,WNW,292,1.0,2.0,68,0.00,,,0.00,weatherlink.com 1.10,2013-04-25 03:04:00,
2013-04-24 23:19:00,59.9,50.0,29.64,WNW,287,0.0,1.0,71,0.00,,,0.00,weatherlink.com 1.10,2013-04-25 03:19:00,
2013-04-24 23:34:00,60.2,50.0,29.64,WSW,249,1.0,3.0,70,0.00,,,0.00,weatherlink.com 1.10,2013-04-25 03:34:00,
2013-04-24 23:49:00,60.4,51.0,29.64,South,171,2.0,2.0,71,0.00,,,0.00,weatherlink.com 1.10,2013-04-25 03:49:00,